SCP
2 2 3 3 4 4 4 4 3 2 2 2 2 1 1 1 1 0 0 0 1 1 0 0 0 0 0 0 0 0 0 0 0 0 0 0 0 0 0 0 0 0 0
2 2 3 3 4 5 5 4 3 3 2 2 2 1 1 1 1 1 0 0 1 1 1 1 1 0 0 0 0 0 0 0 0 0 0 0 0 0 0 0 0 0 0
2 3 3 4 4 5 5 5 4 3 3 2 2 2 1 1 1 1 1 0 0 1 1 1 1 0 0 0 0 0 0 0 0 0 0 0 0 0 0 0 0 0 0
2 3 3 4 4 5 5 5 4 3 3 3 2 2 2 1 1 1 1 1 1 1 1 1 1 0 0 0 0 0 0 0 0 0 0 0 0 0 0 0 0 0 0
3 3 4 4 4 5 5 5 4 3 3 3 3 2 2 1 1 1 1 1 1 1 1 1 1 0 0 0 0 0 0 0 0 0 0 0 0 0 0 0 0 0 0
3 3 4 4 4 4 5 5 4 4 3 3 2 2 2 1 1 1 1 1 1 1 1 1 0 0 0 0 0 0 0 0 0 0 0 0 0 0 0 0 0 0 0
3 3 4 5 5 4 4 4 4 4 3 3 2 2 2 2 1 1 1 1 1 1 1 0 0 0 0 0 0 0 0 0 0 0 0 0 0 0 0 0 0 0 0
4 3 4 4 4 4 4 4 4 4 3 3 2 2 2 2 2 1 1 1 1 1 1 0 0 0 0 0 0 0 0 0 0 0 0 0 0 0 0 0 0 0 0
4 3 3 4 4 4 4 4 4 4 3 3 2 2 2 2 2 2 2 1 1 1 1 0 0 0 0 0 0 0 0 0 0 0 0 0 0 0 0 0 0 0 0
3 3 3 3 3 3 3 3 3 3 3 3 3 2 2 2 2 2 2 2 2 1 1 0 0 0 0 0 0 0 0 0 0 0 0 0 0 0 0 0 0 0 0
3 3 3 3 3 3 3 3 3 3 3 2 2 2 2 2 2 1 1 1 1 1 1 0 0 0 0 0 0 0 0 0 0 0 0 0 0 0 0 1 1 1 1
2 3 3 3 3 3 3 3 3 3 2 2 2 2 2 2 1 1 1 1 1 1 1 0 0 0 0 0 0 0 0 0 0 0 0 0 0 0 1 1 1 1 1
2 2 2 2 2 2 2 3 3 3 3 2 2 2 2 1 1 1 1 1 1 1 0 0 0 0 0 0 0 0 0 0 0 0 0 0 0 1 1 1 1 1 1
1 2 3 3 2 2 2 3 3 3 3 2 2 2 2 2 1 1 1 1 1 0 0 0 0 0 0 0 0 0 0 0 0 0 0 0 0 1 1 1 1 1 1
1 2 4 3 2 2 2 2 3 3 2 2 2 2 2 2 1 1 1 1 1 0 0 0 0 0 0 0 0 0 0 0 0 0 0 0 1 1 1 1 1 1 1
1 2 2 2 1 1 1 2 2 3 2 2 2 2 2 2 1 1 1 1 1 0 0 0 0 0 0 0 0 0 0 0 0 0 0 0 0 1 1 1 1 1 1
1 1 1 1 1 1 1 1 2 2 2 2 2 2 2 2 1 1 1 1 1 0 0 0 0 0 0 0 0 0 1 0 0 0 0 0 0 0 1 1 2 2 2
1 1 1 1 1 1 1 1 1 2 2 2 2 2 2 2 1 1 1 1 1 0 0 0 1 1 1 1 1 1 1 1 0 0 0 0 0 0 0 1 2 2 2
1 1 1 1 1 1 1 1 1 1 1 2 2 2 2 2 1 1 1 1 1 0 0 0 0 1 1 1 1 1 1 1 1 0 0 0 0 0 0 1 2 2 2
1 1 1 1 1 1 1 3 4 3 1 2 2 2 2 1 1 1 1 1 1 0 0 0 0 0 0 0 0 0 1 1 1 0 0 0 0 0 0 1 1 1 1
1 1 1 1 1 1 1 4 6 4 1 1 2 2 2 1 1 1 1 1 1 0 0 0 0 0 0 0 0 0 0 0 0 0 0 0 0 0 0 0 0 0 1
0 1 1 1 1 1 1 2 4 2 1 1 1 1 1 1 1 1 1 1 1 1 1 0 0 0 0 0 0 0 0 0 0 0 0 0 0 0 0 0 0 0 0
0 0 1 1 1 1 1 1 1 1 1 1 1 1 1 1 1 1 1 1 1 1 1 1 1 0 0 0 0 0 0 0 0 0 0 0 0 0 0 0 0 0 0
0 0 1 1 1 1 1 1 1 1 1 1 1 1 1 1 1 1 1 1 1 1 1 1 1 1 0 0 0 0 0 0 0 0 0 0 0 0 1 1 0 0 0
0 0 1 1 1 1 1 1 1 1 1 1 1 1 1 1 1 1 1 1 1 1 1 1 1 1 1 1 1 1 1 0 0 0 0 0 0 0 1 1 1 0 0
0 0 1 1 1 0 0 0 0 0 0 0 0 0 0 1 1 1 1 1 1 1 1 1 1 1 1 1 1 1 1 1 1 1 0 0 0 0 1 1 1 0 0
Wind_Speed
9 12 18 18 18 17 17 17 17 16 16 16 16 17 17 17 17 17 17 17 16 16 16 16 16 16 16 17 17 16 16 16 15 15 14 14 15 15 15 15 13 9 15
13 15 19 18 18 18 17 17 16 16 15 16 17 17 17 17 17 17 17 17 16 16 16 16 16 16 16 16 15 15 15 14 14 13 12 10 12 14 14 14 13 9 15
14 14 17 18 18 18 17 16 16 16 16 16 17 17 17 17 17 17 16 16 16 16 16 16 15 15 15 14 14 13 13 12 11 10 9 5 8 13 13 13 13 13 13
14 12 13 17 18 18 17 17 17 17 17 16 16 17 17 17 17 17 16 16 16 16 15 15 14 14 13 12 12 11 11 10 10 9 5 4 5 11 12 12 12 12 12
12 11 12 17 18 18 17 17 17 17 17 16 16 16 16 17 17 17 16 16 15 15 14 14 13 13 11 10 10 10 10 10 10 8 5 4 4 10 11 11 11 11 11
10 9 12 16 17 17 17 17 17 17 17 16 16 16 16 16 17 17 16 15 15 14 14 13 12 12 10 8 8 8 9 10 8 4 4 3 3 9 10 10 10 10 10
10 8 11 15 16 16 17 16 16 16 17 16 16 17 17 16 16 16 15 15 15 14 14 13 12 11 9 8 7 8 9 8 5 4 3 3 4 9 9 9 9 9 8
11 9 10 14 14 14 16 16 16 16 16 16 16 16 17 17 16 16 16 15 14 14 13 12 11 10 8 7 6 6 7 6 6 4 3 2 5 8 8 7 7 7 7
8 9 7 8 10 12 13 14 15 15 15 15 15 15 14 15 15 16 16 15 14 14 13 12 11 9 8 6 5 4 5 5 4 2 3 2 5 7 7 6 6 6 6
6 7 7 6 6 7 8 12 13 14 13 13 14 13 13 13 13 14 13 13 14 13 12 11 10 9 6 5 3 3 4 4 2 2 2 3 6 6 6 5 5 5 4
5 6 7 7 6 6 6 8 10 12 12 12 12 13 12 8 8 9 10 12 12 12 12 11 10 8 5 3 3 2 2 2 2 2 2 5 7 6 6 5 5 4 3
7 6 6 7 7 6 6 6 5 6 7 7 7 9 7 6 6 8 10 11 12 11 10 10 9 7 3 1 1 1 1 2 2 2 3 7 7 6 6 5 5 4 3
7 7 6 6 7 6 5 5 3 3 4 6 8 8 6 6 5 5 5 6 7 7 5 6 5 3 3 2 2 1 2 2 2 2 3 7 7 7 7 6 5 4 3
6 6 7 6 6 6 5 5 5 4 4 5 7 8 7 5 5 5 4 5 4 3 4 4 3 3 3 4 3 3 3 3 3 2 4 7 8 8 7 7 6 5 4
6 6 7 7 7 6 5 5 5 5 6 6 7 8 8 6 7 6 5 5 5 4 4 4 4 4 4 4 4 4 4 4 4 4 3 7 8 8 8 7 6 5 5
6 6 6 7 7 6 5 4 5 5 6 6 6 8 9 7 7 7 6 6 5 5 5 5 5 4 3 3 4 4 4 3 4 4 3 4 7 7 8 7 6 6 5
4 4 5 7 7 7 6 5 4 5 6 6 6 8 9 8 8 7 6 6 6 5 5 4 4 3 3 3 3 4 3 4 4 5 4 3 3 6 7 7 7 6 5
4 4 5 5 6 6 5 5 4 4 5 6 5 6 8 8 8 7 6 6 6 5 5 4 4 3 3 3 3 3 3 3 4 4 4 4 3 3 5 6 5 5 5
5 4 3 4 4 5 5 4 4 3 4 5 5 5 6 8 8 6 6 5 6 4 4 5 4 3 4 3 3 2 2 3 4 4 4 4 4 4 3 4 5 4 4
4 5 4 3 3 3 3 2 3 2 2 3 4 5 7 7 8 7 5 6 6 5 4 4 4 3 3 3 2 2 2 2 3 3 4 4 3 4 4 3 3 2 3
4 4 4 3 3 3 3 2 2 3 2 3 4 5 7 7 8 7 5 6 6 6 6 6 4 4 3 2 1 1 2 2 2 3 3 3 4 4 4 4 3 2 1
3 3 3 3 3 3 2 2 2 2 2 3 3 3 5 6 7 7 7 6 6 5 6 6 4 3 3 3 3 2 2 2 2 2 2 3 4 3 3 4 3 3 2
2 2 2 2 3 3 3 2 2 1 1 2 2 2 3 5 6 6 7 6 6 6 6 6 6 6 4 4 3 4 3 4 2 2 3 3 3 3 3 3 4 3 3
1 2 2 3 3 2 2 2 3 2 2 3 3 3 3 4 5 5 6 6 6 5 6 6 6 4 5 4 3 3 3 3 3 2 2 2 3 4 4 3 3 3 3
2 2 2 2 2 2 1 2 2 2 2 2 2 3 3 3 5 5 5 5 6 5 6 6 5 5 5 5 4 2 2 2 2 3 3 3 2 2 3 3 3 3 3
4 3 2 3 2 1 1 1 2 2 2 2 2 3 3 3 3 4 4 4 5 5 6 6 6 6 5 5 4 4 3 3 4 3 3 3 3 2 2 2 3 3 3
Wind_Direction
167 166 166 162 157 154 152 149 147 145 142 140 137 134 131 129 128 127 125 125 121 118 115 112 108 105 104 103 101 98 94 90 86 83 81 81 82 83 81 77 72 67 72
156 162 163 162 159 156 155 153 151 148 147 145 143 140 138 135 133 131 129 127 124 120 116 113 111 109 108 107 104 101 98 94 91 88 82 80 84 86 84 81 79 77 74
151 160 161 161 159 158 156 155 154 152 151 150 148 145 143 141 139 136 133 130 126 122 118 116 113 113 112 110 107 104 100 97 96 93 87 80 88 89 87 84 81 78 76
149 156 161 162 161 160 158 157 157 156 155 154 152 150 148 146 143 140 137 133 128 124 122 120 118 116 116 114 110 106 99 96 98 97 83 76 86 92 90 87 83 80 77
149 153 158 162 162 161 160 160 159 159 158 157 154 153 152 150 147 143 138 134 130 126 125 124 124 122 119 114 109 104 96 96 98 92 86 79 82 95 92 88 85 83 80
147 152 157 160 162 162 161 162 162 162 161 159 157 156 155 153 150 144 139 136 132 130 130 129 131 129 123 115 110 101 99 102 98 94 94 90 94 101 97 93 89 87 83
147 151 157 159 162 163 163 164 165 165 164 162 159 158 157 154 150 144 141 139 138 137 137 136 136 135 129 121 112 104 108 109 107 106 107 103 113 110 104 99 93 90 85
150 153 158 160 161 165 167 167 169 167 166 165 162 161 158 155 151 147 145 145 145 144 144 143 143 141 137 129 115 108 111 116 113 114 117 124 128 118 112 106 101 96 91
149 149 153 159 161 165 169 171 171 169 166 165 163 160 157 153 153 151 150 151 151 150 150 150 151 151 150 140 124 110 115 118 124 138 143 149 141 131 125 119 111 104 99
149 151 148 149 155 158 164 170 168 166 165 163 159 155 153 152 154 153 154 157 157 156 156 157 160 162 160 153 136 120 121 122 141 148 157 168 160 148 142 137 129 120 110
158 162 156 155 152 154 159 166 164 164 163 160 156 153 151 151 152 154 159 160 161 162 163 166 169 171 170 173 169 147 127 146 155 166 175 176 171 166 163 160 152 140 129
175 175 164 161 159 158 166 160 161 166 163 162 159 157 155 153 157 158 162 164 165 167 171 175 179 180 177 186 194 165 158 167 175 188 194 187 183 180 179 176 169 166 165
181 177 169 167 163 162 159 160 160 160 161 162 162 162 157 155 157 158 161 165 166 168 173 179 180 184 186 196 209 201 187 184 190 201 200 196 193 189 188 184 186 191 199
180 178 172 171 168 163 159 165 164 161 165 170 170 165 162 164 166 168 170 171 171 172 175 179 183 196 203 212 215 211 200 191 197 202 203 198 199 197 195 195 198 205 214
181 181 176 167 165 166 160 170 169 170 173 176 174 171 170 172 174 173 174 176 178 176 178 184 191 200 212 217 216 210 209 200 201 201 202 199 200 202 203 206 211 216 221
186 184 179 175 170 168 170 172 176 178 175 177 181 180 176 174 175 176 177 180 183 183 184 189 194 200 211 212 215 214 211 199 198 198 201 200 202 204 205 212 219 225 226
190 185 185 181 178 176 179 178 183 184 180 183 186 184 180 177 177 178 179 183 187 185 184 186 194 197 209 212 214 214 204 199 195 197 199 201 201 208 212 216 221 225 233
171 181 185 188 178 178 181 177 181 187 183 184 184 184 182 180 180 180 182 187 187 183 184 189 190 194 208 208 212 215 205 199 202 201 200 198 195 200 210 212 214 222 230
154 162 166 167 169 179 181 178 163 174 181 181 180 184 184 181 179 181 185 187 185 188 193 200 196 190 201 206 211 218 212 206 209 206 205 202 198 195 197 198 196 205 215
132 145 143 141 157 173 170 162 146 145 177 185 182 184 182 181 177 180 185 187 187 190 198 204 203 201 200 196 205 227 243 226 209 207 207 198 197 195 189 183 181 197 197
109 126 134 134 153 164 163 160 165 180 187 196 192 186 185 182 180 182 186 188 191 196 201 199 200 202 206 174 151 269 289 269 237 222 206 192 194 191 176 175 172 168 183
131 123 130 148 140 144 157 165 163 175 193 205 199 193 196 193 190 187 187 191 194 196 200 200 194 197 207 186 170 181 252 276 266 242 215 198 199 188 181 174 163 162 159
119 136 145 141 127 132 138 133 127 122 159 187 205 202 215 209 202 198 192 192 195 196 203 206 201 199 209 211 193 183 194 227 237 243 228 207 193 190 189 175 168 167 161
93 99 108 115 114 117 123 128 154 176 192 205 201 211 218 212 206 205 199 195 198 202 207 210 207 209 200 212 217 218 209 180 192 230 250 223 200 198 193 183 172 169 159
82 88 90 94 103 96 119 153 159 193 201 199 189 210 218 219 216 205 202 199 201 206 210 209 209 212 209 211 210 209 221 220 197 194 221 221 221 214 198 184 172 168 157
43 52 65 75 80 119 128 137 161 182 187 189 196 218 225 228 225 214 208 207 210 211 210 212 211 211 217 217 217 208 202 206 209 199 210 209 211 212 201 186 177 170 157